Overview Statistics Trail Chart Weather Telemetry Raw packets
 

This is the latest recevied weather packets stored in our database for station/object KC0RKM-13. If no packets are shown the sender has not sent any weather packets the latest 10 day(s).

<< 10 11 12 13 14 15 16 >>
Time Temp. Humidity Pressure Rain* Wind** Luminosity Snow
1788415803 27.22° C 57% 1012.2 hPa 0 mm - - -
1788415204 27.78° C 56% 1012.1 hPa 0 mm - - -
1788414603 27.78° C 56% 1012 hPa 0 mm - - -
1788414004 27.78° C 57% 1012 hPa 0 mm - - -
1788413403 27.22° C 57% 1012 hPa 0 mm - - -
1788412803 27.22° C 57% 1011.9 hPa 0 mm - - -
1788412204 27.22° C 57% 1012 hPa 0 mm - - -
1788411604 27.78° C 56% 1012.2 hPa 0 mm - - -
1788411004 27.78° C 55% 1011.9 hPa 0 mm - - -
1788410403 27.78° C 55% 1011.9 hPa 0 mm - - -
1788409803 28.33° C 54% 1011.9 hPa 0 mm - - -
1788409204 28.33° C 54% 1011.8 hPa 0 mm - - -
1788408603 28.89° C 53% 1012.1 hPa 0 mm - - -
1788408003 28.89° C 52% 1012 hPa 0 mm - - -
1788407403 29.44° C 52% 1011.9 hPa 0 mm - - -
1788406803 29.44° C 52% 1012 hPa 0 mm - - -
1788406204 29.44° C 52% 1011.9 hPa 0 mm - - -
1788405603 28.89° C 53% 1012 hPa 0 mm - - -
1788405003 29.44° C 52% 1012.1 hPa 0 mm - - -
1788404403 29.44° C 52% 1011.7 hPa 0 mm - - -
1788403803 29.44° C 51% 1011.7 hPa 0 mm - - -
1788403204 30° C 51% 1011.7 hPa 0 mm - - -
1788402604 30° C 51% 1011.8 hPa 0 mm - - -
1788402003 30° C 50% 1011.5 hPa 0 mm - - -
1788401404 30.56° C 49% 1011.6 hPa 0 mm - - -

* Rain latest hour (hover to see other rain measurements)
** Current wind speed in m/s (hover to see current wind gust speed)